CW0315 Weather Reports


time (UTC)temp
C
wind
direction
speed
KPH
gust
KPH
rain 1hr
cm
rain 24hr
cm
rain mn
cm
humidity
%
barometer
mb
20260502201313 11 22 9.7 12.9 0.00 0.00 0.00 51 1017.2
20260502200316 11 22 9.7 12.9 0.00 0.00 0.00 50 1017.0
20260502195313 12 45 9.7 12.9 0.00 0.00 0.00 50 1017.4
20260502194313 11 22 9.7 11.3 0.00 0.00 0.00 49 1017.1
20260502193313 11 22 8.0 11.3 0.00 0.00 0.00 52 1017.0
20260502192316 12 22 8.0 11.3 0.00 0.00 0.00 49 1017.0
20260502191312 12 22 9.7 11.3 0.00 0.00 0.00 48 1017.1
20260502190313 12 22 8.0 12.9 0.00 0.00 0.00 47 1016.9
20260502185312 12 45 8.0 9.7 0.00 0.00 0.00 47 1016.9
20260502184312 13 22 8.0 9.7 0.00 0.00 0.00 47 1017.1
20260502183312 13 45 6.4 8.0 0.00 0.00 0.00 48 1017.1
20260502182312 13 22 6.4 9.7 0.00 0.00 0.00 48 1016.9
20260502181312 13 22 4.8 8.0 0.00 0.00 0.00 50 1016.9
20260502170311 20 0 0.0 3.2 0.00 0.00 0.00 28 1017.1
20260502164311 20 202 3.2 8.0 0.00 0.00 0.00 28 1017.3
20260502163310 20 180 0.0 8.0 0.00 0.00 0.00 30 1017.6
20260502162310 20 202 3.2 11.3 0.00 0.00 0.00 29 1017.6
20260502160310 20 180 0.0 8.0 0.00 0.00 0.00 28 1017.6
20260502152309 21 247 1.6 9.7 0.00 0.00 0.00 28 1018.3
20260502151309 21 180 4.8 9.7 0.00 0.00 0.00 28 1018.3
20260502150309 21 202 4.8 8.0 0.00 0.00 0.00 26 1018.6
20260502130313 21 157 1.6 8.0 0.00 0.00 0.00 34 1020.0
20260502123312 21 180 1.6 8.0 0.00 0.00 0.00 31 1020.2
20260502122312 21 180 0.0 16.1 0.00 0.00 0.00 31 1020.1
20260502121312 20 157 3.2 17.7 0.00 0.00 0.00 32 1020.2
20260502115312 21 360 1.6 9.7 0.00 0.00 0.00 33 1020.8
20260502114311 21 202 8.0 17.7 0.00 0.00 0.00 31 1020.9
20260502112311 20 180 4.8 12.9 0.00 0.00 0.00 27 1021.0
20260502111311 19 202 1.6 12.9 0.00 0.00 0.00 28 1021.2
20260502105311 20 180 6.4 12.9 0.00 0.00 0.00 29 1021.3
20260502104311 20 202 1.6 17.7 0.00 0.00 0.00 28 1021.3
20260502103311 19 202 4.8 24.1 0.00 0.00 0.00 28 1021.3
20260502102310 19 180 12.9 16.1 0.00 0.00 0.00 32 1021.4
20260502091310 18 202 6.4 16.1 0.00 0.00 0.00 33 1021.8
20260502071313 16 0 0.0 4.8 0.00 0.00 0.00 38 1022.6
20260502070313 15 135 1.6 6.4 0.00 0.00 0.00 41 1022.4
20260502065313 15 90 4.8 9.7 0.00 0.00 0.00 41 1022.4
20260502061312 13 90 4.8 9.7 0.00 0.00 0.00 54 1022.7
20260502060312 11 45 3.2 8.0 0.00 0.00 0.00 63 1022.6
20260502055312 10 45 6.4 8.0 0.00 0.00 0.00 66 1022.6
20260502053312 9 45 8.0 9.7 0.00 0.00 0.00 66 1022.8
20260502052312 8 45 8.0 8.0 0.00 0.00 0.00 69 1022.6
20260502051311 7 45 6.4 11.3 0.00 0.00 0.00 69 1022.6
20260502050311 7 45 9.7 11.3 0.00 0.00 0.00 69 1022.6
20260502045311 7 45 6.4 12.9 0.00 0.00 0.00 69 1022.5
20260502044311 7 45 8.0 11.3 0.00 0.00 0.00 69 1022.4
20260502040310 6 45 9.7 12.9 0.00 0.00 0.00 71 1022.3
20260502034310 6 45 9.7 12.9 0.00 0.00 0.00 71 1022.6
20260502033310 6 45 9.7 12.9 0.00 0.00 0.00 70 1022.4
20260502032310 7 45 8.0 11.3 0.00 0.00 0.00 69 1022.6
20260502031310 7 45 9.7 11.3 0.00 0.00 0.00 68 1022.8
20260502030309 7 45 9.7 12.9 0.00 0.00 0.00 66 1023.0
20260502025309 7 45 11.3 12.9 0.00 0.00 0.00 66 1023.2
20260502024309 7 45 9.7 12.9 0.00 0.00 0.00 66 1023.0
20260502023309 7 45 9.7 12.9 0.00 0.00 0.00 67 1023.3
20260502022309 7 45 9.7 12.9 0.00 0.00 0.00 67 1023.1
20260502020314 7 45 9.7 12.9 0.00 0.00 0.00 65 1023.4
20260502015314 7 45 9.7 14.5 0.00 0.00 0.00 64 1023.4
20260502014313 7 45 11.3 16.1 0.00 0.00 0.00 63 1023.2
20260502013313 7 45 9.7 12.9 0.00 0.00 0.00 64 1023.2
20260502012313 7 45 9.7 12.9 0.00 0.00 0.00 64 1023.6
20260502011313 7 45 9.7 14.5 0.00 0.00 0.00 65 1023.7
20260502005313 7 45 9.7 12.9 0.00 0.00 0.00 67 1023.9
20260502004313 6 45 9.7 12.9 0.00 0.00 0.00 70 1023.6
20260502003313 6 45 8.0 9.7 0.00 0.00 0.00 72 1023.6
20260502002313 6 45 6.4 8.0 0.00 0.00 0.00 72 1023.6
20260502001312 6 45 6.4 9.7 0.00 0.00 0.00 70 1023.6
20260502000312 7 45 4.8 9.7 0.00 0.00 0.00 68 1023.9
20260501234312 7 45 4.8 9.7 0.00 0.00 0.00 68 1024.2
20260501233312 7 22 4.8 6.4 0.00 0.00 0.00 66 1024.2
20260501231312 8 45 4.8 11.3 0.00 0.00 0.00 64 1024.2
20260501230311 7 45 4.8 8.0 0.00 0.00 0.00 65 1024.1
20260501225311 7 45 4.8 6.4 0.00 0.00 0.00 69 1024.1
20260501224311 6 22 4.8 9.7 0.00 0.00 0.00 71 1023.9
20260501223311 6 45 8.0 9.7 0.00 0.00 0.00 75 1023.7
20260501222311 6 45 8.0 11.3 0.00 0.00 0.00 74 1023.7
20260501221311 6 45 9.7 11.3 0.00 0.00 0.00 71 1023.9
20260501220311 7 45 9.7 11.3 0.00 0.00 0.00 70 1023.9
20260501215311 7 45 8.0 11.3 0.00 0.00 0.00 69 1023.9
20260501214310 7 45 8.0 11.3 0.00 0.00 0.00 69 1023.7
20260501212310 7 45 9.7 11.3 0.00 0.00 0.00 70 1023.7
20260501211310 7 45 9.7 11.3 0.00 0.00 0.00 69 1023.6
20260501210310 7 45 11.3 12.9 0.00 0.00 0.00 68 1023.9
20260501205310 7 45 9.7 11.3 0.00 0.00 0.00 69 1023.9
20260501204310 7 45 9.7 11.3 0.00 0.00 0.00 68 1024.1
20260501203309 8 45 9.7 12.9 0.00 0.00 0.00 67 1024.1
20260501202309 8 45 8.0 11.3 0.00 0.00 0.00 66 1024.1